Time,TemperatureF,DewpointF,PressureIn,WindDirection,WindDirectionDegrees,WindSpeedMPH,WindSpeedGustMPH,Humidity,HourlyPrecipIn,Conditions,Clouds,dailyrainin,SoftwareType,DateUTC
2013-09-02 00:01:00,68.0,64.0,29.89,WNW,296,0.0,1.0,87,0.00,,,0.00,,2013-09-02 07:01:00,
2013-09-02 00:22:00,68.0,64.0,29.88,WNW,296,1.0,4.0,87,0.00,,,0.00,,2013-09-02 07:22:00,
2013-09-02 00:33:00,68.0,64.0,29.88,WNW,296,1.0,4.0,87,0.00,,,0.00,,2013-09-02 07:33:00,
2013-09-02 00:52:00,68.0,64.0,29.88,WNW,296,1.0,4.0,87,0.00,,,0.00,,2013-09-02 07:52:00,
2013-09-02 01:02:00,68.0,64.0,29.88,WNW,296,1.0,4.0,87,0.00,,,0.00,,2013-09-02 08:02:00,
2013-09-02 01:22:00,68.0,63.0,29.88,WNW,297,2.0,4.0,85,0.00,,,0.00,,2013-09-02 08:22:00,
2013-09-02 01:32:00,68.0,63.0,29.88,WNW,297,2.0,4.0,85,0.00,,,0.00,,2013-09-02 08:32:00,
2013-09-02 01:52:00,68.0,63.0,29.88,WNW,297,2.0,4.0,85,0.00,,,0.00,,2013-09-02 08:52:00,
2013-09-02 02:01:00,68.0,63.0,29.88,WNW,297,2.0,4.0,85,0.00,,,0.00,,2013-09-02 09:01:00,
2013-09-02 02:22:00,67.0,63.0,29.88,WNW,296,2.0,4.0,86,0.00,,,0.00,,2013-09-02 09:22:00,
2013-09-02 02:34:00,67.0,63.0,29.88,WNW,296,2.0,4.0,86,0.00,,,0.00,,2013-09-02 09:34:00,
2013-09-02 02:53:00,66.0,62.0,29.88,WNW,296,3.0,4.0,86,0.00,,,0.00,,2013-09-02 09:53:00,
2013-09-02 03:03:00,66.0,62.0,29.88,WNW,296,3.0,4.0,86,0.00,,,0.00,,2013-09-02 10:03:00,
2013-09-02 03:22:00,66.0,62.0,29.88,WNW,295,0.0,4.0,86,0.00,,,0.00,,2013-09-02 10:22:00,
2013-09-02 03:33:00,66.0,62.0,29.88,WNW,295,0.0,4.0,86,0.00,,,0.00,,2013-09-02 10:33:00,
2013-09-02 03:53:00,66.0,62.0,29.88,WNW,295,0.0,1.0,86,0.00,,,0.00,,2013-09-02 10:53:00,
2013-09-02 04:02:00,66.0,62.0,29.88,WNW,295,0.0,1.0,86,0.00,,,0.00,,2013-09-02 11:02:00,
2013-09-02 04:22:00,66.0,62.0,29.88,WNW,295,0.0,0.0,86,0.00,,,0.00,,2013-09-02 11:22:00,
2013-09-02 04:33:00,66.0,62.0,29.88,WNW,295,0.0,0.0,86,0.00,,,0.00,,2013-09-02 11:33:00,
2013-09-02 04:52:00,66.0,62.0,29.88,WNW,295,0.0,1.0,86,0.00,,,0.00,,2013-09-02 11:52:00,
2013-09-02 05:01:00,66.0,62.0,29.88,WNW,295,0.0,1.0,86,0.00,,,0.00,,2013-09-02 12:01:00,
2013-09-02 05:12:00,66.0,62.0,29.88,WNW,295,0.0,1.0,86,0.00,,,0.00,,2013-09-02 12:12:00,
2013-09-02 05:21:00,66.0,62.0,29.88,WNW,295,0.0,1.0,86,0.00,,,0.00,,2013-09-02 12:21:00,
2013-09-02 05:32:00,66.0,62.0,29.88,WNW,295,0.0,1.0,86,0.00,,,0.00,,2013-09-02 12:32:00,
2013-09-02 06:22:00,66.0,62.0,29.88,WNW,296,0.0,0.0,86,0.00,,,0.00,,2013-09-02 13:22:00,
2013-09-02 06:32:00,66.0,62.0,29.88,WNW,296,0.0,0.0,86,0.00,,,0.00,,2013-09-02 13:32:00,
2013-09-02 06:52:00,66.0,62.0,29.88,WNW,296,0.0,0.0,86,0.00,,,0.00,,2013-09-02 13:52:00,
2013-09-02 07:02:00,66.0,62.0,29.88,WNW,296,0.0,0.0,86,0.00,,,0.00,,2013-09-02 14:02:00,
2013-09-02 07:52:00,68.0,64.0,29.90,WNW,296,0.0,0.0,88,0.00,,,0.00,,2013-09-02 14:52:00,
2013-09-02 08:02:00,68.0,64.0,29.90,WNW,296,0.0,0.0,88,0.00,,,0.00,,2013-09-02 15:02:00,
2013-09-02 08:03:00,71.0,65.0,29.91,WNW,296,0.0,1.0,82,0.00,,,0.00,,2013-09-02 15:03:00,
2013-09-02 08:22:00,71.0,65.0,29.91,WNW,296,0.0,1.0,82,0.00,,,0.00,,2013-09-02 15:22:00,
2013-09-02 08:34:00,71.0,65.0,29.91,WNW,296,0.0,1.0,82,0.00,,,0.00,,2013-09-02 15:34:00,
2013-09-02 08:54:00,71.0,65.0,29.91,WNW,296,0.0,1.0,82,0.00,,,0.00,,2013-09-02 15:54:00,
2013-09-02 09:33:00,75.0,65.0,29.92,SSW,206,1.0,5.0,72,0.00,,,0.00,,2013-09-02 16:33:00,
2013-09-02 09:53:00,75.0,65.0,29.92,SSW,206,1.0,5.0,72,0.00,,,0.00,,2013-09-02 16:53:00,
2013-09-02 10:03:00,75.0,65.0,29.92,SSW,206,1.0,5.0,72,0.00,,,0.00,,2013-09-02 17:03:00,
2013-09-02 10:12:00,75.0,65.0,29.92,SSW,206,1.0,5.0,72,0.00,,,0.00,,2013-09-02 17:12:00,
2013-09-02 10:23:00,75.0,65.0,29.92,SSW,206,1.0,5.0,72,0.00,,,0.00,,2013-09-02 17:23:00,
2013-09-02 10:52:00,78.0,65.0,29.92,WSW,244,0.0,7.0,65,0.00,,,0.00,,2013-09-02 17:52:00,
2013-09-02 11:02:00,78.0,65.0,29.92,WSW,244,0.0,7.0,65,0.00,,,0.00,,2013-09-02 18:02:00,
2013-09-02 11:13:00,78.0,65.0,29.92,WSW,244,0.0,7.0,65,0.00,,,0.00,,2013-09-02 18:13:00,
2013-09-02 11:22:00,78.0,65.0,29.92,WSW,244,0.0,7.0,65,0.00,,,0.00,,2013-09-02 18:22:00,
2013-09-02 11:32:00,78.0,65.0,29.92,WSW,244,0.0,7.0,65,0.00,,,0.00,,2013-09-02 18:32:00,
2013-09-02 11:52:00,79.0,66.0,29.91,West,269,4.0,9.0,64,0.00,,,0.00,,2013-09-02 18:52:00,
2013-09-02 12:02:00,79.0,66.0,29.91,West,269,4.0,9.0,64,0.00,,,0.00,,2013-09-02 19:02:00,
2013-09-02 12:12:00,79.0,66.0,29.91,West,269,4.0,9.0,64,0.00,,,0.00,,2013-09-02 19:12:00,
2013-09-02 12:22:00,79.0,66.0,29.91,West,269,4.0,9.0,64,0.00,,,0.00,,2013-09-02 19:22:00,
2013-09-02 12:32:00,79.0,66.0,29.91,West,269,4.0,9.0,64,0.00,,,0.00,,2013-09-02 19:32:00,
2013-09-02 13:52:00,79.0,65.0,29.88,WSW,245,6.0,13.0,62,0.00,,,0.00,,2013-09-02 20:52:00,
2013-09-02 14:02:00,79.0,65.0,29.88,WSW,245,6.0,13.0,62,0.00,,,0.00,,2013-09-02 21:02:00,
2013-09-02 14:23:00,80.0,65.0,29.87,WSW,240,11.0,13.0,61,0.00,,,0.00,,2013-09-02 21:23:00,
2013-09-02 14:34:00,80.0,65.0,29.87,WSW,240,11.0,13.0,61,0.00,,,0.00,,2013-09-02 21:34:00,
2013-09-02 14:55:00,79.0,65.0,29.85,WSW,252,6.0,12.0,62,0.00,,,0.00,,2013-09-02 21:55:00,
2013-09-02 15:04:00,79.0,65.0,29.85,WSW,252,6.0,12.0,62,0.00,,,0.00,,2013-09-02 22:04:00,
2013-09-02 15:23:00,78.0,64.0,29.84,West,265,8.0,14.0,63,0.00,,,0.00,,2013-09-02 22:23:00,
2013-09-02 15:33:00,78.0,64.0,29.84,West,265,8.0,14.0,63,0.00,,,0.00,,2013-09-02 22:33:00,
2013-09-02 15:54:00,78.0,64.0,29.84,West,265,8.0,14.0,63,0.00,,,0.00,,2013-09-02 22:54:00,
2013-09-02 16:03:00,78.0,64.0,29.84,West,265,8.0,14.0,63,0.00,,,0.00,,2013-09-02 23:03:00,
2013-09-02 16:22:00,74.0,64.0,29.83,West,268,4.0,12.0,70,0.00,,,0.00,,2013-09-02 23:22:00,
2013-09-02 16:34:00,74.0,64.0,29.83,West,268,4.0,12.0,70,0.00,,,0.00,,2013-09-02 23:34:00,
2013-09-02 16:52:00,74.0,64.0,29.83,WSW,240,7.0,11.0,72,0.00,,,0.00,,2013-09-02 23:52:00,
2013-09-02 17:01:00,74.0,64.0,29.83,WSW,240,7.0,11.0,72,0.00,,,0.00,,2013-09-03 00:01:00,
2013-09-02 17:11:00,74.0,64.0,29.83,WSW,240,7.0,11.0,72,0.00,,,0.00,,2013-09-03 00:11:00,
2013-09-02 17:21:00,73.0,64.0,29.83,West,271,5.0,10.0,73,0.00,,,0.00,,2013-09-03 00:21:00,
2013-09-02 17:32:00,73.0,64.0,29.83,West,271,5.0,10.0,73,0.00,,,0.00,,2013-09-03 00:32:00,
2013-09-02 17:42:00,73.0,64.0,29.83,West,271,5.0,10.0,73,0.00,,,0.00,,2013-09-03 00:42:00,
2013-09-02 17:52:00,73.0,64.0,29.83,West,271,5.0,10.0,73,0.00,,,0.00,,2013-09-03 00:52:00,
2013-09-02 18:01:00,73.0,64.0,29.83,West,271,5.0,10.0,73,0.00,,,0.00,,2013-09-03 01:01:00,
2013-09-02 18:22:00,71.0,64.0,29.83,West,280,6.0,10.0,78,0.00,,,0.00,,2013-09-03 01:22:00,
2013-09-02 18:32:00,71.0,64.0,29.83,West,280,6.0,10.0,78,0.00,,,0.00,,2013-09-03 01:32:00,
2013-09-02 18:42:00,71.0,64.0,29.83,West,280,6.0,10.0,78,0.00,,,0.00,,2013-09-03 01:42:00,
2013-09-02 18:52:00,71.0,64.0,29.83,West,280,6.0,10.0,78,0.00,,,0.00,,2013-09-03 01:52:00,
2013-09-02 19:02:00,71.0,64.0,29.83,West,280,6.0,10.0,78,0.00,,,0.00,,2013-09-03 02:02:00,
2013-09-02 19:22:00,70.0,64.0,29.81,West,275,2.0,3.0,80,0.00,,,0.00,,2013-09-03 02:22:00,
2013-09-02 19:33:00,70.0,64.0,29.81,West,275,2.0,3.0,80,0.00,,,0.00,,2013-09-03 02:33:00,
2013-09-02 19:42:00,70.0,64.0,29.81,West,275,2.0,3.0,80,0.00,,,0.00,,2013-09-03 02:42:00,
2013-09-02 19:52:00,70.0,63.0,29.82,SSW,210,7.0,11.0,79,0.00,,,0.00,,2013-09-03 02:52:00,
2013-09-02 20:02:00,70.0,63.0,29.82,SSW,210,7.0,11.0,79,0.00,,,0.00,,2013-09-03 03:02:00,
2013-09-02 20:03:00,69.0,63.0,29.83,West,271,0.0,5.0,81,0.00,,,0.00,,2013-09-03 03:03:00,
2013-09-02 20:23:00,69.0,63.0,29.83,West,271,0.0,5.0,81,0.00,,,0.00,,2013-09-03 03:23:00,
2013-09-02 20:34:00,69.0,63.0,29.83,West,271,0.0,5.0,81,0.00,,,0.00,,2013-09-03 03:34:00,
2013-09-02 20:55:00,69.0,63.0,29.83,West,271,0.0,5.0,81,0.00,,,0.00,,2013-09-03 03:55:00,
2013-09-02 21:34:00,68.0,63.0,29.85,WNW,296,0.0,5.0,83,0.00,,,0.00,,2013-09-03 04:34:00,
2013-09-02 21:53:00,68.0,63.0,29.85,WNW,296,0.0,5.0,83,0.00,,,0.00,,2013-09-03 04:53:00,
2013-09-02 22:03:00,68.0,63.0,29.85,WNW,296,0.0,5.0,83,0.00,,,0.00,,2013-09-03 05:03:00,
2013-09-02 22:12:00,68.0,63.0,29.85,WNW,296,0.0,5.0,83,0.00,,,0.00,,2013-09-03 05:12:00,
2013-09-02 22:23:00,68.0,63.0,29.85,WNW,296,0.0,5.0,83,0.00,,,0.00,,2013-09-03 05:23:00,
2013-09-02 22:52:00,68.0,63.0,29.86,WNW,296,0.0,0.0,83,0.00,,,0.00,,2013-09-03 05:52:00,
2013-09-02 23:02:00,68.0,63.0,29.86,WNW,296,0.0,0.0,83,0.00,,,0.00,,2013-09-03 06:02:00,
2013-09-02 23:12:00,68.0,63.0,29.86,WNW,296,0.0,0.0,83,0.00,,,0.00,,2013-09-03 06:12:00,
2013-09-02 23:22:00,68.0,63.0,29.86,WNW,296,0.0,0.0,83,0.00,,,0.00,,2013-09-03 06:22:00,
2013-09-02 23:31:00,68.0,63.0,29.86,WNW,296,0.0,0.0,83,0.00,,,0.00,,2013-09-03 06:31:00,
2013-09-02 23:52:00,68.0,63.0,29.86,WNW,296,0.0,1.0,83,0.00,,,0.00,,2013-09-03 06:52:00,